Location: Unspecified
(52.4292°N, 19.3359°E)
Time: 23:46:39
(UTC+02:00)

Altair - Pass Details

Date: 19 May 2024
Orbit: 1502 x 1682 km, 47.2° (Epoch: 19 June)

Event Time Altitude Azimuth Distance (km) Brightness Sun altitude
Rises 13:29:46 0° 249° (WSW) 4,875 10.4 56.0°
Reaches altitude 10° 13:32:55 10° 247° (WSW) 3,906 10.2 55.9°
Maximum altitude 13:42:47 64° 169° (S) 1,835 9.6 55.2°
Drops below altitude 10° 13:52:45 10° 92° (E) 3,940 9.6 54.5°
Sets 13:55:56 0° 89° (E) 4,919 10.0 54.3°
